Time,TemperatureF,DewpointF,PressureIn,WindDirection,WindDirectionDegrees,WindSpeedMPH,WindSpeedGustMPH,Humidity,HourlyPrecipIn,Conditions,Clouds,dailyrainin,SoftwareType,DateUTC
2013-01-21 00:00:00,37.1,32.4,30.17,North,32767,0.0,0.0,83,0.00,,,0.00,Wunderground v.1.13,2013-01-21 08:00:00,
2013-01-21 00:05:00,37.0,32.3,30.17,North,32767,0.0,0.0,83,0.00,,,0.00,Wunderground v.1.13,2013-01-21 08:05:00,
2013-01-21 00:15:00,36.9,32.2,30.16,North,32767,0.0,0.0,83,0.00,,,0.00,Wunderground v.1.13,2013-01-21 08:15:00,
2013-01-21 00:20:00,36.8,32.4,30.16,North,360,0.0,0.0,84,0.00,,,0.00,Wunderground v.1.13,2013-01-21 08:20:00,
2013-01-21 00:25:00,36.8,32.4,30.17,North,32767,0.0,0.0,84,0.00,,,0.00,Wunderground v.1.13,2013-01-21 08:25:00,
2013-01-21 00:35:00,36.7,32.3,30.16,North,360,0.0,0.0,84,0.00,,,0.00,Wunderground v.1.13,2013-01-21 08:35:00,
2013-01-21 00:40:00,36.6,32.2,30.16,North,32767,0.0,0.0,84,0.00,,,0.00,Wunderground v.1.13,2013-01-21 08:40:00,
2013-01-21 00:45:00,36.5,32.1,30.16,North,32767,0.0,0.0,84,0.00,,,0.00,Wunderground v.1.13,2013-01-21 08:45:00,
2013-01-21 00:50:00,36.4,32.0,30.16,North,360,0.0,0.0,84,0.00,,,0.00,Wunderground v.1.13,2013-01-21 08:50:00,
2013-01-21 00:55:00,36.4,32.3,30.15,North,32767,0.0,0.0,85,0.00,,,0.00,Wunderground v.1.13,2013-01-21 08:55:00,
2013-01-21 01:00:00,36.4,32.3,30.15,North,360,0.0,0.0,85,0.00,,,0.00,Wunderground v.1.13,2013-01-21 09:00:00,
2013-01-21 01:06:00,36.4,32.3,30.15,North,32767,0.0,0.0,85,0.00,,,0.00,Wunderground v.1.13,2013-01-21 09:06:00,
2013-01-21 01:15:00,36.3,32.2,30.15,North,360,0.0,0.0,85,0.00,,,0.00,Wunderground v.1.13,2013-01-21 09:15:00,
2013-01-21 01:20:00,36.3,32.2,30.15,North,32767,0.0,0.0,85,0.00,,,0.00,Wunderground v.1.13,2013-01-21 09:20:00,
2013-01-21 01:25:00,36.3,32.2,30.15,North,360,0.0,0.0,85,0.00,,,0.00,Wunderground v.1.13,2013-01-21 09:25:00,
2013-01-21 01:35:00,36.1,32.0,30.15,North,360,0.0,0.0,85,0.00,,,0.00,Wunderground v.1.13,2013-01-21 09:35:00,
2013-01-21 01:45:00,36.1,32.0,30.16,North,32767,0.0,0.0,85,0.00,,,0.00,Wunderground v.1.13,2013-01-21 09:45:00,
2013-01-21 01:50:00,36.0,31.9,30.16,North,360,0.0,0.0,85,0.00,,,0.00,Wunderground v.1.13,2013-01-21 09:50:00,
2013-01-21 01:55:00,36.0,31.9,30.16,North,32767,0.0,0.0,85,0.00,,,0.00,Wunderground v.1.13,2013-01-21 09:55:00,
2013-01-21 02:00:00,35.9,31.8,30.15,North,360,0.0,0.0,85,0.00,,,0.00,Wunderground v.1.13,2013-01-21 10:00:00,
2013-01-21 02:06:00,35.8,31.7,30.15,North,32767,0.0,0.0,85,0.00,,,0.00,Wunderground v.1.13,2013-01-21 10:06:00,
2013-01-21 02:15:00,35.6,31.5,30.15,North,360,0.0,0.0,85,0.00,,,0.00,Wunderground v.1.13,2013-01-21 10:15:00,
2013-01-21 02:20:00,35.5,31.4,30.15,North,32767,0.0,0.0,85,0.00,,,0.00,Wunderground v.1.13,2013-01-21 10:20:00,
2013-01-21 02:25:00,35.4,31.3,30.15,North,360,0.0,0.0,85,0.00,,,0.00,Wunderground v.1.13,2013-01-21 10:25:00,
2013-01-21 02:30:00,35.3,31.2,30.15,North,32767,0.0,0.0,85,0.00,,,0.00,Wunderground v.1.13,2013-01-21 10:30:00,
2013-01-21 02:35:00,35.2,31.1,30.14,North,360,0.0,0.0,85,0.00,,,0.00,Wunderground v.1.13,2013-01-21 10:35:00,
2013-01-21 02:40:00,35.2,31.1,30.15,North,32767,0.0,0.0,85,0.00,,,0.00,Wunderground v.1.13,2013-01-21 10:40:00,
2013-01-21 02:45:00,35.2,31.1,30.14,North,360,0.0,0.0,85,0.00,,,0.00,Wunderground v.1.13,2013-01-21 10:45:00,
2013-01-21 02:55:00,35.2,31.1,30.14,North,32767,0.0,0.0,85,0.00,,,0.00,Wunderground v.1.13,2013-01-21 10:55:00,
2013-01-21 03:00:00,35.2,31.1,30.14,North,360,0.0,0.0,85,0.00,,,0.00,Wunderground v.1.13,2013-01-21 11:00:00,
2013-01-21 03:05:00,35.1,31.0,30.13,North,32767,0.0,0.0,85,0.00,,,0.00,Wunderground v.1.13,2013-01-21 11:05:00,
2013-01-21 03:15:00,35.0,30.9,30.13,North,360,0.0,0.0,85,0.00,,,0.00,Wunderground v.1.13,2013-01-21 11:15:00,
2013-01-21 03:20:00,34.9,30.8,30.13,North,32767,0.0,0.0,85,0.00,,,0.00,Wunderground v.1.13,2013-01-21 11:20:00,
2013-01-21 03:30:00,34.9,30.8,30.13,North,32767,0.0,0.0,85,0.00,,,0.00,Wunderground v.1.13,2013-01-21 11:30:00,
2013-01-21 03:40:00,34.9,30.8,30.13,North,360,0.0,0.0,85,0.00,,,0.00,Wunderground v.1.13,2013-01-21 11:40:00,
2013-01-21 03:45:00,34.8,30.8,30.13,North,32767,0.0,0.0,85,0.00,,,0.00,Wunderground v.1.13,2013-01-21 11:45:00,
2013-01-21 03:50:00,34.8,30.8,30.13,North,32767,0.0,0.0,85,0.00,,,0.00,Wunderground v.1.13,2013-01-21 11:50:00,
2013-01-21 03:55:00,34.7,30.7,30.13,North,32767,0.0,0.0,85,0.00,,,0.00,Wunderground v.1.13,2013-01-21 11:55:00,
2013-01-21 04:06:00,34.8,30.8,30.13,North,32767,0.0,0.0,85,0.00,,,0.00,Wunderground v.1.13,2013-01-21 12:06:00,
2013-01-21 04:15:00,34.8,30.8,30.13,North,32767,0.0,0.0,85,0.00,,,0.00,Wunderground v.1.13,2013-01-21 12:15:00,
2013-01-21 04:20:00,34.7,30.7,30.13,North,360,0.0,0.0,85,0.00,,,0.00,Wunderground v.1.13,2013-01-21 12:20:00,
2013-01-21 04:25:00,34.7,30.7,30.13,North,32767,0.0,0.0,85,0.00,,,0.00,Wunderground v.1.13,2013-01-21 12:25:00,
2013-01-21 04:30:00,34.6,30.6,30.12,North,32767,0.0,0.0,85,0.00,,,0.00,Wunderground v.1.13,2013-01-21 12:30:00,
2013-01-21 04:40:00,34.4,30.1,30.12,North,32767,0.0,0.0,84,0.00,,,0.00,Wunderground v.1.13,2013-01-21 12:40:00,
2013-01-21 04:45:00,34.4,30.1,30.12,North,32767,0.0,0.0,84,0.00,,,0.00,Wunderground v.1.13,2013-01-21 12:45:00,
2013-01-21 04:55:00,34.4,30.1,30.11,North,32767,0.0,0.0,84,0.00,,,0.00,Wunderground v.1.13,2013-01-21 12:55:00,
2013-01-21 05:00:00,34.3,30.0,30.11,North,32767,0.0,0.0,84,0.00,,,0.00,Wunderground v.1.13,2013-01-21 13:00:00,
2013-01-21 05:06:00,34.2,29.9,30.11,North,32767,0.0,0.0,84,0.00,,,0.00,Wunderground v.1.13,2013-01-21 13:06:00,
2013-01-21 05:15:00,34.0,29.7,30.11,North,32767,0.0,0.0,84,0.00,,,0.00,Wunderground v.1.13,2013-01-21 13:15:00,
2013-01-21 05:20:00,33.9,29.6,30.11,North,360,0.0,0.0,84,0.00,,,0.00,Wunderground v.1.13,2013-01-21 13:20:00,
2013-01-21 05:25:00,33.7,29.4,30.11,North,32767,0.0,0.0,84,0.00,,,0.00,Wunderground v.1.13,2013-01-21 13:25:00,
2013-01-21 05:30:00,33.6,29.3,30.10,North,32767,0.0,0.0,84,0.00,,,0.00,Wunderground v.1.13,2013-01-21 13:30:00,
2013-01-21 05:35:00,33.5,29.2,30.10,North,32767,0.0,0.0,84,0.00,,,0.00,Wunderground v.1.13,2013-01-21 13:35:00,
2013-01-21 05:40:00,33.4,29.1,30.10,North,32767,0.0,0.0,84,0.00,,,0.00,Wunderground v.1.13,2013-01-21 13:40:00,
2013-01-21 05:50:00,33.2,28.9,30.11,North,32767,0.0,0.0,84,0.00,,,0.00,Wunderground v.1.13,2013-01-21 13:50:00,
2013-01-21 05:55:00,33.1,28.8,30.11,North,360,0.0,0.0,84,0.00,,,0.00,Wunderground v.1.13,2013-01-21 13:55:00,
2013-01-21 06:00:00,33.0,28.7,30.11,North,32767,0.0,0.0,84,0.00,,,0.00,Wunderground v.1.13,2013-01-21 14:00:00,
2013-01-21 06:06:00,32.9,28.6,30.11,North,360,0.0,0.0,84,0.00,,,0.00,Wunderground v.1.13,2013-01-21 14:06:00,
2013-01-21 06:15:00,32.8,28.5,30.11,North,360,0.0,0.0,84,0.00,,,0.00,Wunderground v.1.13,2013-01-21 14:15:00,
2013-01-21 06:25:00,32.6,28.3,30.12,North,32767,0.0,0.0,84,0.00,,,0.00,Wunderground v.1.13,2013-01-21 14:25:00,
2013-01-21 06:30:00,32.6,28.3,30.12,North,360,0.0,0.0,84,0.00,,,0.00,Wunderground v.1.13,2013-01-21 14:30:00,
2013-01-21 06:35:00,32.5,28.2,30.12,North,32767,0.0,0.0,84,0.00,,,0.00,Wunderground v.1.13,2013-01-21 14:35:00,
2013-01-21 06:40:00,32.4,28.1,30.12,North,360,0.0,0.0,84,0.00,,,0.00,Wunderground v.1.13,2013-01-21 14:40:00,
2013-01-21 06:50:00,32.3,28.3,30.13,North,32767,0.0,0.0,85,0.00,,,0.00,Wunderground v.1.13,2013-01-21 14:50:00,
2013-01-21 07:00:00,32.2,28.2,30.13,North,32767,0.0,0.0,85,0.00,,,0.00,Wunderground v.1.13,2013-01-21 15:00:00,
2013-01-21 07:06:00,32.1,28.1,30.13,North,32767,0.0,0.0,85,0.00,,,0.00,Wunderground v.1.13,2013-01-21 15:06:00,
2013-01-21 07:15:00,32.1,28.1,30.14,North,32767,0.0,0.0,85,0.00,,,0.00,Wunderground v.1.13,2013-01-21 15:15:00,
2013-01-21 07:20:00,32.1,28.1,30.14,North,32767,0.0,0.0,85,0.00,,,0.00,Wunderground v.1.13,2013-01-21 15:20:00,
2013-01-21 07:25:00,32.1,28.1,30.14,North,360,0.0,0.0,85,0.00,,,0.00,Wunderground v.1.13,2013-01-21 15:25:00,
2013-01-21 07:35:00,32.1,28.1,30.14,North,32767,0.0,0.0,85,0.00,,,0.00,Wunderground v.1.13,2013-01-21 15:35:00,
2013-01-21 07:40:00,32.1,28.4,30.14,North,360,0.0,0.0,86,0.00,,,0.00,Wunderground v.1.13,2013-01-21 15:40:00,
2013-01-21 07:45:00,32.4,28.7,30.14,North,32767,0.0,0.0,86,0.00,,,0.00,Wunderground v.1.13,2013-01-21 15:45:00,
2013-01-21 07:50:00,32.8,29.4,30.15,North,360,0.0,0.0,87,0.00,,,0.00,Wunderground v.1.13,2013-01-21 15:50:00,
2013-01-21 07:55:00,33.2,29.5,30.15,North,32767,0.0,0.0,86,0.00,,,0.00,Wunderground v.1.13,2013-01-21 15:55:00,
2013-01-21 08:06:00,33.7,30.0,30.15,North,32767,0.0,0.0,86,0.00,,,0.00,Wunderground v.1.13,2013-01-21 16:06:00,
2013-01-21 08:15:00,34.1,30.4,30.15,North,32767,0.0,0.0,86,0.00,,,0.00,Wunderground v.1.13,2013-01-21 16:15:00,
2013-01-21 08:20:00,34.4,30.6,30.16,North,360,0.0,0.0,86,0.00,,,0.00,Wunderground v.1.13,2013-01-21 16:20:00,
2013-01-21 08:25:00,34.5,30.7,30.16,North,32767,0.0,0.0,86,0.00,,,0.00,Wunderground v.1.13,2013-01-21 16:25:00,
2013-01-21 08:30:00,34.8,31.0,30.16,North,32767,0.0,0.0,86,0.00,,,0.00,Wunderground v.1.13,2013-01-21 16:30:00,
2013-01-21 08:40:00,35.4,31.6,30.16,North,32767,0.0,0.0,86,0.00,,,0.00,Wunderground v.1.13,2013-01-21 16:40:00,
2013-01-21 08:45:00,35.9,32.1,30.16,North,32767,0.0,0.0,86,0.00,,,0.00,Wunderground v.1.13,2013-01-21 16:45:00,
2013-01-21 08:55:00,38.3,34.5,30.16,North,32767,0.0,0.0,86,0.00,,,0.00,Wunderground v.1.13,2013-01-21 16:55:00,
2013-01-21 09:00:00,40.4,35.9,30.16,North,32767,0.0,0.0,84,0.00,,,0.00,Wunderground v.1.13,2013-01-21 17:00:00,
2013-01-21 09:06:00,42.5,37.1,30.16,North,360,0.0,0.0,81,0.00,,,0.00,Wunderground v.1.13,2013-01-21 17:06:00,
2013-01-21 09:15:00,45.8,36.6,30.16,North,32767,0.0,0.0,70,0.00,,,0.00,Wunderground v.1.13,2013-01-21 17:15:00,
2013-01-21 09:20:00,47.0,35.8,30.17,North,360,0.0,0.0,65,0.00,,,0.00,Wunderground v.1.13,2013-01-21 17:20:00,
2013-01-21 09:25:00,47.5,35.9,30.17,North,32767,0.0,0.0,64,0.00,,,0.00,Wunderground v.1.13,2013-01-21 17:25:00,
2013-01-21 09:30:00,47.4,35.4,30.17,North,360,0.0,0.0,63,0.00,,,0.00,Wunderground v.1.13,2013-01-21 17:30:00,
2013-01-21 09:35:00,47.1,34.7,30.16,North,32767,0.0,0.0,62,0.00,,,0.00,Wunderground v.1.13,2013-01-21 17:35:00,
2013-01-21 09:40:00,46.8,34.9,30.17,North,360,0.0,0.0,63,0.00,,,0.00,Wunderground v.1.13,2013-01-21 17:40:00,
2013-01-21 09:50:00,46.3,34.4,30.17,North,32767,0.0,0.0,63,0.00,,,0.00,Wunderground v.1.13,2013-01-21 17:50:00,
2013-01-21 09:55:00,46.1,34.6,30.17,North,360,0.0,0.0,64,0.00,,,0.00,Wunderground v.1.13,2013-01-21 17:55:00,
2013-01-21 10:00:00,46.0,34.9,30.17,North,32767,0.0,0.0,65,0.00,,,0.00,Wunderground v.1.13,2013-01-21 18:00:00,
2013-01-21 10:06:00,46.1,35.0,30.17,North,32767,0.0,0.0,65,0.00,,,0.00,Wunderground v.1.13,2013-01-21 18:06:00,
2013-01-21 10:15:00,46.6,35.5,30.17,North,32767,0.0,0.0,65,0.00,,,0.00,Wunderground v.1.13,2013-01-21 18:15:00,
2013-01-21 10:25:00,47.4,35.4,30.17,North,32767,0.0,0.0,63,0.00,,,0.00,Wunderground v.1.13,2013-01-21 18:25:00,
2013-01-21 10:30:00,47.9,35.9,30.18,North,32767,0.0,0.0,63,0.00,,,0.00,Wunderground v.1.13,2013-01-21 18:30:00,
2013-01-21 10:40:00,48.3,36.3,30.18,North,32767,0.0,0.0,63,0.00,,,0.00,Wunderground v.1.13,2013-01-21 18:40:00,
2013-01-21 10:45:00,48.3,36.3,30.18,North,32767,0.0,0.0,63,0.00,,,0.00,Wunderground v.1.13,2013-01-21 18:45:00,
2013-01-21 10:50:00,48.5,36.9,30.18,North,32767,0.0,0.0,64,0.00,,,0.00,Wunderground v.1.13,2013-01-21 18:50:00,
2013-01-21 11:00:00,49.4,37.3,30.18,North,360,0.0,0.0,63,0.00,,,0.00,Wunderground v.1.13,2013-01-21 19:00:00,
2013-01-21 11:06:00,50.0,37.9,30.18,North,32767,0.0,0.0,63,0.00,,,0.00,Wunderground v.1.13,2013-01-21 19:06:00,
2013-01-21 11:15:00,50.5,38.0,30.17,North,32767,0.0,0.0,62,0.00,,,0.00,Wunderground v.1.13,2013-01-21 19:15:00,
2013-01-21 11:20:00,50.8,38.2,30.17,North,360,0.0,0.0,62,0.00,,,0.00,Wunderground v.1.13,2013-01-21 19:20:00,
2013-01-21 11:25:00,51.4,38.4,30.17,North,32767,0.0,0.0,61,0.00,,,0.00,Wunderground v.1.13,2013-01-21 19:25:00,
2013-01-21 11:35:00,52.9,39.0,30.16,North,360,0.0,0.0,59,0.00,,,0.00,Wunderground v.1.13,2013-01-21 19:35:00,
2013-01-21 11:40:00,53.5,39.1,30.16,North,32767,0.0,0.0,58,0.00,,,0.00,Wunderground v.1.13,2013-01-21 19:40:00,
2013-01-21 11:45:00,53.9,39.5,30.16,North,360,0.0,0.0,58,0.00,,,0.00,Wunderground v.1.13,2013-01-21 19:45:00,
2013-01-21 11:50:00,54.2,39.7,30.16,North,32767,0.0,0.0,58,0.00,,,0.00,Wunderground v.1.13,2013-01-21 19:50:00,
2013-01-21 11:55:00,54.8,39.8,30.15,North,360,0.0,0.0,57,0.00,,,0.00,Wunderground v.1.13,2013-01-21 19:55:00,
2013-01-21 12:06:00,55.2,39.8,30.15,North,360,0.0,0.0,56,0.00,,,0.00,Wunderground v.1.13,2013-01-21 20:06:00,
2013-01-21 12:15:00,55.7,40.2,30.15,North,360,0.0,0.0,56,0.00,,,0.00,Wunderground v.1.13,2013-01-21 20:15:00,
2013-01-21 12:20:00,56.2,39.8,30.14,North,32767,0.0,0.0,54,0.00,,,0.00,Wunderground v.1.13,2013-01-21 20:20:00,
2013-01-21 12:30:00,56.9,40.4,30.14,North,32767,0.0,0.0,54,0.00,,,0.00,Wunderground v.1.13,2013-01-21 20:30:00,
2013-01-21 12:35:00,57.3,40.3,30.13,North,32767,0.0,0.0,53,0.00,,,0.00,Wunderground v.1.13,2013-01-21 20:35:00,
2013-01-21 12:45:00,58.0,39.5,30.13,North,32767,0.0,0.0,50,0.00,,,0.00,Wunderground v.1.13,2013-01-21 20:45:00,
2013-01-21 12:50:00,58.6,40.0,30.13,North,360,0.0,0.0,50,0.00,,,0.00,Wunderground v.1.13,2013-01-21 20:50:00,
2013-01-21 12:55:00,59.0,39.9,30.13,North,32767,0.0,0.0,49,0.00,,,0.00,Wunderground v.1.13,2013-01-21 20:55:00,
2013-01-21 13:00:00,59.1,39.4,30.13,North,32767,0.0,0.0,48,0.00,,,0.00,Wunderground v.1.13,2013-01-21 21:00:00,
2013-01-21 13:06:00,59.6,39.3,30.14,North,32767,0.0,0.0,47,0.00,,,0.00,Wunderground v.1.13,2013-01-21 21:06:00,
2013-01-21 13:15:00,60.2,39.3,30.14,North,360,0.0,0.0,46,0.00,,,0.00,Wunderground v.1.13,2013-01-21 21:15:00,
2013-01-21 13:20:00,60.0,38.6,30.14,North,32767,0.0,0.0,45,0.00,,,0.00,Wunderground v.1.13,2013-01-21 21:20:00,
2013-01-21 13:25:00,60.3,39.4,30.13,North,360,0.0,0.0,46,0.00,,,0.00,Wunderground v.1.13,2013-01-21 21:25:00,
2013-01-21 13:30:00,60.8,39.9,30.13,North,32767,0.0,0.0,46,0.00,,,0.00,Wunderground v.1.13,2013-01-21 21:30:00,
2013-01-21 13:35:00,61.3,39.8,30.13,North,32767,0.0,0.0,45,0.00,,,0.00,Wunderground v.1.13,2013-01-21 21:35:00,
2013-01-21 13:40:00,61.7,39.6,30.13,North,32767,0.0,0.0,44,0.00,,,0.00,Wunderground v.1.13,2013-01-21 21:40:00,
2013-01-21 13:45:00,61.8,40.2,30.12,North,32767,0.0,0.0,45,0.00,,,0.00,Wunderground v.1.13,2013-01-21 21:45:00,
2013-01-21 13:55:00,62.7,40.5,30.11,North,360,0.0,0.0,44,0.00,,,0.00,Wunderground v.1.13,2013-01-21 21:55:00,
2013-01-21 14:00:00,63.4,41.1,30.11,North,32767,0.0,0.0,44,0.00,,,0.00,Wunderground v.1.13,2013-01-21 22:00:00,
2013-01-21 14:06:00,64.3,41.3,30.11,North,32767,0.0,0.0,43,0.00,,,0.00,Wunderground v.1.13,2013-01-21 22:06:00,
2013-01-21 14:15:00,65.0,41.3,30.11,North,32767,0.0,0.0,42,0.00,,,0.00,Wunderground v.1.13,2013-01-21 22:15:00,
2013-01-21 14:20:00,65.5,41.2,30.11,North,32767,0.0,0.0,41,0.00,,,0.00,Wunderground v.1.13,2013-01-21 22:20:00,
2013-01-21 14:30:00,67.0,41.9,30.10,North,32767,0.0,0.0,40,0.00,,,0.00,Wunderground v.1.13,2013-01-21 22:30:00,
2013-01-21 14:40:00,67.8,41.3,30.10,North,32767,0.0,0.0,38,0.00,,,0.00,Wunderground v.1.13,2013-01-21 22:40:00,
2013-01-21 14:45:00,67.9,42.0,30.11,North,32767,0.0,0.0,39,0.00,,,0.00,Wunderground v.1.13,2013-01-21 22:45:00,
2013-01-21 14:50:00,67.8,41.3,30.11,North,32767,0.0,0.0,38,0.00,,,0.00,Wunderground v.1.13,2013-01-21 22:50:00,
2013-01-21 14:55:00,67.5,41.7,30.11,North,32767,0.0,0.0,39,0.00,,,0.00,Wunderground v.1.13,2013-01-21 22:55:00,
2013-01-21 15:06:00,67.9,42.0,30.10,North,32767,0.0,0.0,39,0.00,,,0.00,Wunderground v.1.13,2013-01-21 23:06:00,
2013-01-21 15:15:00,67.3,41.5,30.10,North,32767,0.0,0.0,39,0.00,,,0.00,Wunderground v.1.13,2013-01-21 23:15:00,
2013-01-21 15:20:00,66.5,41.4,30.10,North,360,0.0,0.0,40,0.00,,,0.00,Wunderground v.1.13,2013-01-21 23:20:00,
2013-01-21 15:25:00,65.6,41.9,30.10,North,32767,0.0,0.0,42,0.00,,,0.00,Wunderground v.1.13,2013-01-21 23:25:00,
2013-01-21 15:30:00,64.7,42.3,30.10,North,32767,0.0,0.0,44,0.00,,,0.00,Wunderground v.1.13,2013-01-21 23:30:00,
2013-01-21 15:40:00,63.2,42.6,30.10,North,32767,0.0,0.0,47,0.00,,,0.00,Wunderground v.1.13,2013-01-21 23:40:00,
2013-01-21 15:45:00,62.8,42.8,30.10,North,360,0.0,0.0,48,0.00,,,0.00,Wunderground v.1.13,2013-01-21 23:45:00,
2013-01-21 15:50:00,62.4,43.0,30.10,North,32767,0.0,0.0,49,0.00,,,0.00,Wunderground v.1.13,2013-01-21 23:50:00,
2013-01-21 15:55:00,62.1,42.7,30.10,North,32767,0.0,0.0,49,0.00,,,0.00,Wunderground v.1.13,2013-01-21 23:55:00,
2013-01-21 16:00:00,61.9,43.6,30.10,North,32767,0.0,0.0,51,0.00,,,0.00,Wunderground v.1.13,2013-01-22 00:00:00,
2013-01-21 16:05:00,61.7,43.9,30.09,North,32767,0.0,0.0,52,0.00,,,0.00,Wunderground v.1.13,2013-01-22 00:05:00,
2013-01-21 16:15:00,61.4,44.1,30.09,North,32767,0.0,0.0,53,0.00,,,0.00,Wunderground v.1.13,2013-01-22 00:15:00,
2013-01-21 16:20:00,61.3,44.5,30.09,North,360,0.0,0.0,54,0.00,,,0.00,Wunderground v.1.13,2013-01-22 00:20:00,
2013-01-21 16:25:00,61.1,44.3,30.09,North,32767,0.0,0.0,54,0.00,,,0.00,Wunderground v.1.13,2013-01-22 00:25:00,
2013-01-21 16:35:00,60.6,43.9,30.09,North,32767,0.0,0.0,54,0.00,,,0.00,Wunderground v.1.13,2013-01-22 00:35:00,
2013-01-21 16:40:00,60.1,44.3,30.09,North,360,0.0,0.0,56,0.00,,,0.00,Wunderground v.1.13,2013-01-22 00:40:00,
2013-01-21 16:50:00,59.0,41.9,30.09,North,32767,0.0,0.0,53,0.00,,,0.00,Wunderground v.1.13,2013-01-22 00:50:00,
2013-01-21 16:55:00,58.8,41.7,30.09,North,360,0.0,0.0,53,0.00,,,0.00,Wunderground v.1.13,2013-01-22 00:55:00,
2013-01-21 17:00:00,58.3,41.2,30.09,North,32767,0.0,0.0,53,0.00,,,0.00,Wunderground v.1.13,2013-01-22 01:00:00,
2013-01-21 17:06:00,57.9,41.3,30.09,North,32767,0.0,0.0,54,0.00,,,0.00,Wunderground v.1.13,2013-01-22 01:06:00,
2013-01-21 17:15:00,56.9,40.9,30.08,North,32767,0.0,0.0,55,0.00,,,0.00,Wunderground v.1.13,2013-01-22 01:15:00,
2013-01-21 17:25:00,56.0,40.5,30.09,North,360,0.0,0.0,56,0.00,,,0.00,Wunderground v.1.13,2013-01-22 01:25:00,
2013-01-21 17:30:00,55.5,40.5,30.09,North,32767,0.0,0.0,57,0.00,,,0.00,Wunderground v.1.13,2013-01-22 01:30:00,
2013-01-21 17:35:00,55.1,40.1,30.09,North,32767,0.0,0.0,57,0.00,,,0.00,Wunderground v.1.13,2013-01-22 01:35:00,
2013-01-21 17:40:00,54.7,40.2,30.09,North,32767,0.0,0.0,58,0.00,,,0.00,Wunderground v.1.13,2013-01-22 01:40:00,
2013-01-21 17:45:00,54.1,39.6,30.09,North,32767,0.0,0.0,58,0.00,,,0.00,Wunderground v.1.13,2013-01-22 01:45:00,
2013-01-21 17:55:00,52.9,39.8,30.09,North,32767,0.0,0.0,61,0.00,,,0.00,Wunderground v.1.13,2013-01-22 01:55:00,
2013-01-21 18:00:00,52.3,39.2,30.09,North,360,0.0,0.0,61,0.00,,,0.00,Wunderground v.1.13,2013-01-22 02:00:00,
2013-01-21 18:06:00,51.8,39.2,30.09,North,32767,0.0,0.0,62,0.00,,,0.00,Wunderground v.1.13,2013-01-22 02:06:00,
2013-01-21 18:15:00,50.9,38.7,30.09,North,32767,0.0,0.0,63,0.00,,,0.00,Wunderground v.1.13,2013-01-22 02:15:00,
2013-01-21 18:25:00,50.0,38.7,30.09,North,32767,0.0,0.0,65,0.00,,,0.00,Wunderground v.1.13,2013-01-22 02:25:00,
2013-01-21 18:35:00,49.4,38.5,30.09,North,360,0.0,0.0,66,0.00,,,0.00,Wunderground v.1.13,2013-01-22 02:35:00,
2013-01-21 18:40:00,49.1,38.6,30.09,North,32767,0.0,0.0,67,0.00,,,0.00,Wunderground v.1.13,2013-01-22 02:40:00,
2013-01-21 18:45:00,48.8,38.3,30.09,North,360,0.0,0.0,67,0.00,,,0.00,Wunderground v.1.13,2013-01-22 02:45:00,
2013-01-21 18:50:00,48.5,38.4,30.09,North,32767,0.0,0.0,68,0.00,,,0.00,Wunderground v.1.13,2013-01-22 02:50:00,
2013-01-21 18:55:00,48.1,38.0,30.10,North,360,0.0,0.0,68,0.00,,,0.00,Wunderground v.1.13,2013-01-22 02:55:00,
2013-01-21 19:06:00,47.4,37.7,30.10,North,32767,0.0,0.0,69,0.00,,,0.00,Wunderground v.1.13,2013-01-22 03:06:00,
2013-01-21 19:15:00,46.8,37.5,30.11,North,32767,0.0,0.0,70,0.00,,,0.00,Wunderground v.1.13,2013-01-22 03:15:00,
2013-01-21 19:20:00,46.4,37.1,30.11,North,360,0.0,0.0,70,0.00,,,0.00,Wunderground v.1.13,2013-01-22 03:20:00,
2013-01-21 19:25:00,46.1,37.2,30.11,North,32767,0.0,0.0,71,0.00,,,0.00,Wunderground v.1.13,2013-01-22 03:25:00,
2013-01-21 19:30:00,45.7,37.2,30.10,North,360,0.0,0.0,72,0.00,,,0.00,Wunderground v.1.13,2013-01-22 03:30:00,
2013-01-21 19:40:00,45.0,36.9,30.10,North,32767,0.0,0.0,73,0.00,,,0.00,Wunderground v.1.13,2013-01-22 03:40:00,
2013-01-21 19:45:00,44.8,37.0,30.10,North,360,0.0,0.0,74,0.00,,,0.00,Wunderground v.1.13,2013-01-22 03:45:00,
2013-01-21 19:50:00,44.6,36.8,30.10,North,32767,0.0,0.0,74,0.00,,,0.00,Wunderground v.1.13,2013-01-22 03:50:00,
2013-01-21 19:55:00,44.3,36.5,30.10,North,360,0.0,0.0,74,0.00,,,0.00,Wunderground v.1.13,2013-01-22 03:55:00,
2013-01-21 20:06:00,43.7,36.6,30.10,North,32767,0.0,0.0,76,0.00,,,0.00,Wunderground v.1.13,2013-01-22 04:06:00,
2013-01-21 20:15:00,43.3,36.6,30.11,North,360,0.0,0.0,77,0.00,,,0.00,Wunderground v.1.13,2013-01-22 04:15:00,
2013-01-21 20:20:00,43.2,36.5,30.11,North,32767,0.0,0.0,77,0.00,,,0.00,Wunderground v.1.13,2013-01-22 04:20:00,
2013-01-21 20:30:00,43.1,36.7,30.11,North,32767,0.0,0.0,78,0.00,,,0.00,Wunderground v.1.13,2013-01-22 04:30:00,
2013-01-21 20:35:00,43.0,36.6,30.11,North,32767,0.0,0.0,78,0.00,,,0.00,Wunderground v.1.13,2013-01-22 04:35:00,
2013-01-21 20:40:00,43.0,36.6,30.11,North,360,0.0,0.0,78,0.00,,,0.00,Wunderground v.1.13,2013-01-22 04:40:00,
2013-01-21 20:50:00,42.8,36.7,30.12,North,32767,0.0,0.0,79,0.00,,,0.00,Wunderground v.1.13,2013-01-22 04:50:00,
2013-01-21 20:55:00,42.6,36.5,30.12,North,360,0.0,0.0,79,0.00,,,0.00,Wunderground v.1.13,2013-01-22 04:55:00,
2013-01-21 21:00:00,42.6,36.9,30.13,North,32767,0.0,0.0,80,0.00,,,0.00,Wunderground v.1.13,2013-01-22 05:00:00,
2013-01-21 21:06:00,42.6,36.9,30.13,North,32767,0.0,0.0,80,0.00,,,0.00,Wunderground v.1.13,2013-01-22 05:06:00,
2013-01-21 21:10:00,42.6,36.9,30.13,North,32767,0.0,0.0,80,0.00,,,0.00,Wunderground v.1.13,2013-01-22 05:10:00,
2013-01-21 21:15:00,42.5,36.8,30.13,North,32767,0.0,0.0,80,0.00,,,0.00,Wunderground v.1.13,2013-01-22 05:15:00,
2013-01-21 21:20:00,42.4,36.7,30.13,North,360,0.0,0.0,80,0.00,,,0.00,Wunderground v.1.13,2013-01-22 05:20:00,
2013-01-21 21:30:00,42.8,37.7,30.13,North,360,0.0,0.0,82,0.00,,,0.00,Wunderground v.1.13,2013-01-22 05:30:00,
2013-01-21 21:35:00,43.2,37.8,30.13,North,32767,0.0,0.0,81,0.00,,,0.00,Wunderground v.1.13,2013-01-22 05:35:00,
2013-01-21 21:40:00,43.3,37.9,30.13,North,32767,0.0,0.0,81,0.00,,,0.00,Wunderground v.1.13,2013-01-22 05:40:00,
2013-01-21 21:45:00,43.3,37.5,30.13,North,32767,0.0,0.0,80,0.00,,,0.00,Wunderground v.1.13,2013-01-22 05:45:00,
2013-01-21 21:50:00,43.2,37.4,30.13,North,32767,0.0,0.0,80,0.00,,,0.00,Wunderground v.1.13,2013-01-22 05:50:00,
2013-01-21 22:00:00,42.7,37.0,30.13,North,360,0.0,0.0,80,0.00,,,0.00,Wunderground v.1.13,2013-01-22 06:00:00,
2013-01-21 22:06:00,42.4,36.7,30.13,North,32767,0.0,0.0,80,0.00,,,0.00,Wunderground v.1.13,2013-01-22 06:06:00,
2013-01-21 22:15:00,42.0,36.3,30.13,North,32767,0.0,0.0,80,0.00,,,0.00,Wunderground v.1.13,2013-01-22 06:15:00,
2013-01-21 22:20:00,41.7,36.0,30.13,North,360,0.0,0.0,80,0.00,,,0.00,Wunderground v.1.13,2013-01-22 06:20:00,
2013-01-21 22:25:00,41.5,35.8,30.13,North,32767,0.0,0.0,80,0.00,,,0.00,Wunderground v.1.13,2013-01-22 06:25:00,
2013-01-21 22:35:00,41.0,35.6,30.13,North,360,0.0,0.0,81,0.00,,,0.00,Wunderground v.1.13,2013-01-22 06:35:00,
2013-01-21 22:40:00,40.7,35.3,30.13,North,32767,0.0,0.0,81,0.00,,,0.00,Wunderground v.1.13,2013-01-22 06:40:00,
2013-01-21 22:45:00,40.6,35.2,30.13,North,360,0.0,0.0,81,0.00,,,0.00,Wunderground v.1.13,2013-01-22 06:45:00,
2013-01-21 22:55:00,40.2,34.8,30.12,North,32767,0.0,0.0,81,0.00,,,0.00,Wunderground v.1.13,2013-01-22 06:55:00,
2013-01-21 23:00:00,40.0,34.9,30.12,North,360,0.0,0.0,82,0.00,,,0.00,Wunderground v.1.13,2013-01-22 07:00:00,
2013-01-21 23:06:00,39.8,34.8,30.12,North,32767,0.0,0.0,82,0.00,,,0.00,Wunderground v.1.13,2013-01-22 07:06:00,
2013-01-21 23:15:00,39.5,34.8,30.12,North,32767,0.0,0.0,83,0.00,,,0.00,Wunderground v.1.13,2013-01-22 07:15:00,
2013-01-21 23:20:00,39.3,34.6,30.12,North,32767,0.0,0.0,83,0.00,,,0.00,Wunderground v.1.13,2013-01-22 07:20:00,
2013-01-21 23:25:00,39.1,34.4,30.12,North,360,0.0,0.0,83,0.00,,,0.00,Wunderground v.1.13,2013-01-22 07:25:00,
2013-01-21 23:30:00,38.9,34.2,30.11,North,32767,0.0,0.0,83,0.00,,,0.00,Wunderground v.1.13,2013-01-22 07:30:00,
2013-01-21 23:35:00,38.8,34.1,30.12,North,360,0.0,0.0,83,0.00,,,0.00,Wunderground v.1.13,2013-01-22 07:35:00,
2013-01-21 23:45:00,38.6,34.2,30.11,North,32767,0.0,0.0,84,0.00,,,0.00,Wunderground v.1.13,2013-01-22 07:45:00,
2013-01-21 23:50:00,38.5,34.1,30.11,North,360,0.0,0.0,84,0.00,,,0.00,Wunderground v.1.13,2013-01-22 07:50:00,
2013-01-21 23:55:00,38.4,34.0,30.11,North,32767,0.0,0.0,84,0.00,,,0.00,Wunderground v.1.13,2013-01-22 07:55:00,